Jackson, MN

8:01 AM CDT on September 19, 2017 (GMT -0500)
Jackson Municipal

Weather History for KMJQ - August, 2013

Change the Weather History Date:

Tuesday, August 13, 2013

  Actual Average Record
Temperature  
Mean Temperature 62 °F -  
Max Temperature 71 °F 76 °F 91 °F (2007)
Min Temperature 53 °F 56 °F 48 °F (1999)
Degree Days  
Heating Degree Days 3    
Growing Degree Days 12 (Base 50)    
Moisture  
Dew Point 52 °F    
Average Humidity 69    
Maximum Humidity 94    
Minimum Humidity 41    
Precipitation  
Precipitation 0.00 in - - ()
Sea Level Pressure  
Sea Level Pressure 30.17 in    
Wind  
Wind Speed 5 mph (NNE)    
Max Wind Speed 13 mph    
Max Gust Speed 17 mph    
Visibility 10 miles    
Events      
Averages and records for this station are not official NWS values.
T = Trace of Precipitation, MM = Missing Value Source: NWS Daily Summary

Daily Weather History Graph

Daily Weather History Graph

Search for Another Location

Airport or City:

Trip Planner

Search our weather history database for the weather conditions in past years. The results will help you decide how hot, cold, wet, or windy it might be!

Date:

Astronomy

Aug. 13, 2013 Rise Set
Actual Time 6:22 AM CDT 8:26 PM CDT
Civil Twilight 5:51 AM CDT 8:57 PM CDT
Nautical Twilight 5:12 AM CDT 9:35 PM CDT
Astronomical Twilight 4:30 AM CDT 10:17 PM CDT
Moon 1:33 PM CDT (8/13) 11:46 PM CDT (8/13)
Length of Visible Light 15h 05m
Length of Day
14h 03m
Waxing Crescent, 42% of the Moon is Illuminated
Aug 13
Waxing Crescent
Aug 14
First Quarter
Aug 20
Full
Aug 28
Last Quarter
Sep 5
New

Hourly Weather History & Observations

Time (CDT) Temp. Dew Point Humidity Pressure Visibility Wind Dir Wind Speed Gust Speed Precip Events Conditions
12:14 AM 59.0 °F 53.6 °F 82% 30.12 in 10.0 mi West 4.6 mph - N/A   Clear
12:33 AM 59.0 °F 53.6 °F 82% 30.12 in 10.0 mi West 4.6 mph - N/A   Clear
12:53 AM 59.0 °F 53.6 °F 82% 30.12 in 10.0 mi West 4.6 mph - N/A   Clear
1:14 AM 59.0 °F 53.6 °F 82% 30.12 in 10.0 mi West 4.6 mph - N/A   Clear
1:33 AM 59.0 °F 53.6 °F 82% 30.11 in 10.0 mi West 3.5 mph - N/A   Clear
1:53 AM 59.0 °F 53.6 °F 82% 30.12 in 10.0 mi WNW 4.6 mph - N/A   Clear
2:14 AM 57.2 °F 53.6 °F 88% 30.12 in 10.0 mi WNW 3.5 mph - N/A   Clear
2:33 AM 57.2 °F 53.6 °F 88% 30.12 in 10.0 mi Calm Calm - N/A   Clear
2:53 AM 59.0 °F 51.8 °F 77% 30.12 in 10.0 mi WNW 4.6 mph - N/A   Clear
3:14 AM 57.2 °F 51.8 °F 82% 30.12 in 10.0 mi WNW 5.8 mph - N/A   Clear
3:33 AM 55.4 °F 51.8 °F 88% 30.12 in 10.0 mi NW 8.1 mph - N/A   Clear
3:53 AM 55.4 °F 51.8 °F 88% 30.13 in 10.0 mi NW 5.8 mph - N/A   Clear
4:14 AM 55.4 °F 51.8 °F 88% 30.13 in 10.0 mi NW 4.6 mph - N/A   Clear
4:33 AM 55.4 °F 51.8 °F 88% 30.13 in 10.0 mi Calm Calm - N/A   Clear
4:53 AM 55.4 °F 51.8 °F 88% 30.13 in 10.0 mi WNW 3.5 mph - N/A   Clear
5:14 AM 53.6 °F 51.8 °F 94% 30.12 in 10.0 mi NW 4.6 mph - N/A   Clear
5:33 AM 53.6 °F 51.8 °F 94% 30.13 in 10.0 mi Calm Calm - N/A   Clear
5:54 AM 53.6 °F 51.8 °F 94% 30.13 in 10.0 mi Calm Calm - N/A   Clear
6:14 AM 53.6 °F 50.0 °F 88% 30.14 in 10.0 mi WNW 3.5 mph - N/A   Clear
6:34 AM 53.6 °F 50.0 °F 88% 30.15 in 7.0 mi NW 4.6 mph - N/A   Clear
6:54 AM 53.6 °F 51.8 °F 94% 30.15 in 7.0 mi NW 4.6 mph - N/A   Clear
7:13 AM 53.6 °F 51.8 °F 94% 30.15 in 7.0 mi NW 4.6 mph - N/A   Clear
7:34 AM 55.4 °F 51.8 °F 88% 30.15 in 7.0 mi NNW 3.5 mph - N/A   Clear
7:54 AM 57.2 °F 53.6 °F 88% 30.15 in 10.0 mi Calm Calm - N/A   Clear
8:13 AM 59.0 °F 53.6 °F 82% 30.16 in 10.0 mi Calm Calm - N/A   Clear
8:34 AM 59.0 °F 53.6 °F 82% 30.17 in 10.0 mi North 3.5 mph - N/A   Clear
8:53 AM 60.8 °F 55.4 °F 82% 30.19 in 10.0 mi North 3.5 mph - N/A   Clear
9:14 AM 62.6 °F 55.4 °F 77% 30.19 in 10.0 mi North 4.6 mph - N/A   Clear
9:34 AM 62.6 °F 57.2 °F 82% 30.19 in 10.0 mi NNW 4.6 mph - N/A   Clear
9:53 AM 64.4 °F 57.2 °F 77% 30.19 in 10.0 mi North 5.8 mph - N/A   Clear
10:14 AM 64.4 °F 57.2 °F 77% 30.20 in 10.0 mi NNE 8.1 mph - N/A   Clear
10:34 AM 66.2 °F 57.2 °F 73% 30.20 in 10.0 mi North 8.1 mph - N/A   Clear
10:53 AM 68.0 °F 57.2 °F 68% 30.21 in 10.0 mi North 8.1 mph - N/A   Clear
11:14 AM 69.8 °F 55.4 °F 60% 30.21 in 10.0 mi North 10.4 mph - N/A   Clear
11:34 AM 69.8 °F 51.8 °F 53% 30.21 in 10.0 mi NNE 12.7 mph 16.1 mph N/A   Scattered Clouds
11:53 AM 69.8 °F 51.8 °F 53% 30.21 in 10.0 mi NNE 10.4 mph - N/A   Scattered Clouds
12:14 PM 69.8 °F 46.4 °F 43% 30.22 in 10.0 mi NNE 11.5 mph 17.3 mph N/A   Clear
12:34 PM 69.8 °F 48.2 °F 46% 30.22 in 10.0 mi North 6.9 mph - N/A   Clear
12:53 PM 69.8 °F 48.2 °F 46% 30.21 in 10.0 mi NNE 6.9 mph - N/A   Clear
1:14 PM 69.8 °F 50.0 °F 49% 30.21 in 10.0 mi North 8.1 mph - N/A   Scattered Clouds
1:34 PM 71.6 °F 46.4 °F 41% 30.21 in 10.0 mi North 6.9 mph - N/A   Clear
1:53 PM 71.6 °F 46.4 °F 41% 30.20 in 10.0 mi North 3.5 mph - N/A   Scattered Clouds
2:13 PM 69.8 °F 51.8 °F 53% 30.20 in 10.0 mi ENE 11.5 mph - N/A   Scattered Clouds
2:34 PM 69.8 °F 51.8 °F 53% 30.20 in 10.0 mi ENE 8.1 mph - N/A   Scattered Clouds
2:53 PM 71.6 °F 50.0 °F 46% 30.20 in 10.0 mi NE 12.7 mph - N/A   Mostly Cloudy
3:14 PM 71.6 °F 50.0 °F 46% 30.20 in 10.0 mi NE 9.2 mph - N/A   Mostly Cloudy
3:33 PM 71.6 °F 50.0 °F 46% 30.20 in 10.0 mi East 5.8 mph - N/A   Scattered Clouds
3:53 PM 69.8 °F 50.0 °F 49% 30.19 in 10.0 mi ENE 8.1 mph - N/A   Scattered Clouds
4:14 PM 71.6 °F 50.0 °F 46% 30.19 in 10.0 mi NE 9.2 mph - N/A   Mostly Cloudy
4:33 PM 71.6 °F 48.2 °F 43% 30.19 in 10.0 mi NE 5.8 mph - N/A   Scattered Clouds
4:53 PM 71.6 °F 48.2 °F 43% 30.19 in 10.0 mi ENE 9.2 mph - N/A   Scattered Clouds
5:14 PM 71.6 °F 50.0 °F 46% 30.18 in 10.0 mi NE 6.9 mph - N/A   Scattered Clouds
5:33 PM 71.6 °F 50.0 °F 46% 30.18 in 10.0 mi NE 9.2 mph - N/A   Scattered Clouds
5:54 PM 71.6 °F 48.2 °F 43% 30.17 in 10.0 mi NE 8.1 mph - N/A   Clear
6:13 PM 71.6 °F 46.4 °F 41% 30.17 in 10.0 mi East 8.1 mph - N/A   Clear
6:34 PM 69.8 °F 46.4 °F 43% 30.18 in 10.0 mi NE 6.9 mph - N/A   Scattered Clouds
6:53 PM 68.0 °F 50.0 °F 52% 30.18 in 10.0 mi ENE 3.5 mph - N/A   Clear
7:13 PM 69.8 °F 50.0 °F 49% 30.17 in 10.0 mi East 4.6 mph - N/A   Clear
7:34 PM 68.0 °F 51.8 °F 56% 30.17 in 10.0 mi East 3.5 mph - N/A   Clear
7:53 PM 66.2 °F 51.8 °F 60% 30.17 in 10.0 mi East 3.5 mph - N/A   Clear
8:13 PM 64.4 °F 51.8 °F 64% 30.18 in 10.0 mi ENE 5.8 mph - N/A   Clear
8:34 PM 62.6 °F 51.8 °F 68% 30.18 in 10.0 mi ENE 3.5 mph - N/A   Clear
8:53 PM 62.6 °F 51.8 °F 68% 30.19 in 10.0 mi East 3.5 mph - N/A   Clear
9:13 PM 60.8 °F 51.8 °F 72% 30.20 in 10.0 mi Calm Calm - N/A   Clear
9:34 PM 60.8 °F 51.8 °F 72% 30.20 in 10.0 mi East 3.5 mph - N/A   Clear
9:54 PM 59.0 °F 51.8 °F 77% 30.20 in 10.0 mi East 3.5 mph - N/A   Clear
10:13 PM 59.0 °F 51.8 °F 77% 30.20 in 10.0 mi East 5.8 mph - N/A   Clear
10:34 PM 57.2 °F 50.0 °F 77% 30.20 in 10.0 mi ESE 3.5 mph - N/A   Clear
10:53 PM 55.4 °F 50.0 °F 82% 30.21 in 10.0 mi Calm Calm - N/A   Clear
11:13 PM 55.4 °F 51.8 °F 88% 30.21 in 10.0 mi Calm Calm - N/A   Clear
11:34 PM 55.4 °F 51.8 °F 88% 30.21 in 10.0 mi Calm Calm - N/A   Clear
11:53 PM 55.4 °F 50.0 °F 82% 30.22 in 10.0 mi Calm Calm - N/A   Clear